Weather History for Marianna, FL

Change the Weather History Date:

Wednesday, March 20, 2013

  Actual Average Record
Temperature  
Mean Temperature 56 °F 61 °F  
Max Temperature 68 °F 73 °F 88 °F (2011)
Min Temperature 44 °F 49 °F 42 °F (2001)
Degree Days  
Heating Degree Days 9    
Month to date heating degree days 203  
Since 1 July heating degree days 1206  
Cooling Degree Days 0    
Month to date cooling degree days 6  
Year to date cooling degree days 65  
Growing Degree Days 6 (Base 50)    
Moisture  
Dew Point 36 °F    
Average Humidity 47    
Maximum Humidity 65    
Minimum Humidity 28    
Precipitation  
Precipitation 0.01 in 0.20 in 1.15 in (2003)
Month to date precipitation 2.34 3.26  
Year to date precipitation 16.21 13.24  
Sea Level Pressure  
Sea Level Pressure 30.01 in    
Wind  
Wind Speed 7 mph (NNE)    
Max Wind Speed 15 mph    
Max Gust Speed 18 mph    
Visibility 10 miles    
Events Rain , Thunderstorm    
T = Trace of Precipitation, MM = Missing Value Source: NWS Daily Summary

Daily Weather History Graph

Daily Weather History Graph

Search for Another Location

Airport:

Trip Planner

Search our weather history database for the weather conditions in past years. The results will help you decide how hot, cold, wet, or windy it might be!

Date:

Astronomy

Mar. 20, 2013 Rise Set
Actual Time 6:44 AM CDT 6:52 PM CDT
Civil Twilight 6:20 AM CDT 7:16 PM CDT
Nautical Twilight 5:52 AM CDT 7:44 PM CDT
Astronomical Twilight 5:23 AM CDT 8:12 PM CDT
Moon 12:47 PM CDT (3/20) 2:01 AM CDT (3/20)
Length of Visible Light 12h 56m
Length of Day
12h 08m
First Quarter, 59% of the Moon is Illuminated
Mar 20
First Quarter
Mar 27
Full
Apr 2
Last Quarter
Apr 10
New
Apr 18
First Quarter

Hourly Weather History & Observations

Time (CDT) Temp. Dew Point Humidity Pressure Visibility Wind Dir Wind Speed Gust Speed Precip Events Conditions
12:53 AM 57.9 °F 44.1 °F 60% 30.01 in 10.0 mi NNE 3.5 mph - N/A   Mostly Cloudy
1:53 AM 57.0 °F 43.0 °F 59% 30.00 in 10.0 mi NE 4.6 mph - N/A   Partly Cloudy
2:53 AM 55.0 °F 42.1 °F 62% 29.98 in 10.0 mi NE 5.8 mph - N/A   Partly Cloudy
3:53 AM 55.9 °F 39.9 °F 55% 29.97 in 10.0 mi NE 4.6 mph - N/A   Mostly Cloudy
4:53 AM 55.0 °F 39.0 °F 55% 30.00 in 10.0 mi NE 5.8 mph - N/A   Mostly Cloudy
5:53 AM 55.0 °F 37.9 °F 53% 30.02 in 10.0 mi NNE 8.1 mph - N/A   Overcast
6:53 AM 54.0 °F 37.0 °F 53% 30.07 in 10.0 mi NNE 8.1 mph - N/A   Mostly Cloudy
7:53 AM 54.0 °F 34.0 °F 47% 30.09 in 10.0 mi NNE 4.6 mph - N/A Thunderstorm Thunderstorm
8:02 AM 53.6 °F 35.6 °F 51% 30.09 in 10.0 mi NE 10.4 mph - 0.00 in Rain Light Rain
8:53 AM 54.0 °F 37.0 °F 53% 30.09 in 10.0 mi NE 6.9 mph - 0.01 in   Mostly Cloudy
9:53 AM 60.1 °F 34.0 °F 38% 30.06 in 10.0 mi ENE 11.5 mph - N/A   Clear
10:53 AM 63.0 °F 33.1 °F 33% 30.05 in 10.0 mi NE 15.0 mph - N/A   Clear
11:53 AM 64.0 °F 33.1 °F 31% 30.05 in 10.0 mi NE 9.2 mph - N/A   Clear
12:53 PM 66.9 °F 34.0 °F 30% 30.01 in 10.0 mi NE 6.9 mph - N/A   Clear
1:53 PM 64.0 °F 34.0 °F 33% 29.99 in 10.0 mi North 5.8 mph - N/A   Mostly Cloudy
2:53 PM 64.9 °F 35.1 °F 33% 29.98 in 10.0 mi NNW 9.2 mph - N/A   Mostly Cloudy
3:53 PM 64.9 °F 34.0 °F 32% 29.97 in 10.0 mi North 6.9 mph - N/A   Clear
4:53 PM 66.0 °F 33.1 °F 29% 29.94 in 10.0 mi NW 8.1 mph - N/A   Clear
5:53 PM 64.9 °F 30.0 °F 27% 29.93 in 10.0 mi NNW 8.1 mph - N/A   Clear
6:53 PM 59.0 °F 33.1 °F 38% 29.94 in 10.0 mi NNW 4.6 mph - N/A   Clear
7:53 PM 54.0 °F 34.0 °F 47% 29.96 in 10.0 mi NW 6.9 mph - N/A   Clear
8:53 PM 54.0 °F 32.0 °F 43% 29.97 in 10.0 mi NNW 5.8 mph - N/A   Clear
9:53 PM 52.0 °F 32.0 °F 47% 29.99 in 10.0 mi WNW 3.5 mph - N/A   Clear
10:53 PM 46.9 °F 35.1 °F 63% 29.99 in 10.0 mi Calm Calm - N/A   Clear
11:53 PM 46.0 °F 35.1 °F 66% 29.99 in 10.0 mi Calm Calm - N/A   Clear